Flag for U.S.A. Weather past 2 weeks in Winder, Georgia, U.S.A.

Now
50 °F

Sunny.


Feels Like: 44 °F
Forecast: 36 / 51 °F
Wind: 18 mph from Northwest

Location: Winder-Barrow Airport

Current Time: Jan 30, 2015 at 12:22:36 PM

Latest Report: Jan 30, 2015 at 11:55 AM


Visibility: 10 mi

Pressure: 30.29 "Hg

Humidity: 43%

Dew point: 28 °F

Location of WinderLocation

Historic Weather in Winder — Graph

°F

Winder temperature yesterday

Maximum temperature yesterday: 59 °F (at 1:55 PM)
Minimum temperature yesterday: 32 °F (at 2:35 AM)
Average temperature yesterday: 45 °F

Past Weeks' High & Low Weather Summary

 TemperatureHumidityPressure
High68 °F (Jan 20, 1:35 PM)100% (Jan 15, 11:15 AM)30.35 "Hg (Jan 15, 11:15 AM)
Low32 °F (Jan 16, 6:15 AM)22% (Jan 19, 2:55 PM)29.70 "Hg (Jan 24, 4:55 AM)
Average46 °F68%30.08 "Hg
* Reported Jan 15 11:15 AM — Jan 30 11:15 AM, Winder, Weather by CustomWeather, © 2014

Note: Actual official high and low records may vary slightly from our data, if they occured in-between our weather recording intervals... More about our weather records

Advertising

Winder weather history for previous 24 hours

 ConditionsComfort  
Time TempWeatherWind HumidityBarometerVisibility
11:15 AM
Jan 30
46 °FSunny.18 mph50%30.30 "Hg10 mi
10:55 AM46 °FSunny.17 mph50%30.31 "Hg10 mi
10:35 AM46 °FSunny.18 mph50%30.30 "Hg10 mi
10:15 AM45 °FSunny.17 mph53%30.30 "Hg10 mi
9:55 AM43 °FSunny.17 mph57%30.28 "Hg10 mi
9:35 AM43 °FSunny.18 mph61%30.27 "Hg10 mi
9:15 AM43 °FSunny.14 mph61%30.26 "Hg10 mi
8:55 AM41 °FSunny.9 mph66%30.25 "Hg10 mi
8:35 AM41 °FSunny.9 mph66%30.25 "Hg10 mi
8:15 AM39 °FSunny.9 mph70%30.23 "Hg10 mi
7:55 AM37 °FSunny.12 mph75%30.23 "Hg10 mi
7:35 AM37 °FSunny.12 mph75%30.23 "Hg10 mi
7:15 AM37 °FClear.10 mph75%30.22 "Hg10 mi
6:55 AM39 °FClear.9 mph75%30.22 "Hg10 mi
6:35 AM41 °FClear.10 mph70%30.21 "Hg10 mi
6:15 AM41 °FClear.13 mph70%30.20 "Hg10 mi
5:55 AM41 °FClear.14 mph70%30.20 "Hg10 mi
5:35 AM43 °FClear.17 mph66%30.18 "Hg10 mi
5:15 AM43 °FPassing clouds.16 mph66%30.17 "Hg10 mi
4:55 AM45 °FPassing clouds.20 mph66%30.16 "Hg10 mi
4:35 AM45 °FOvercast.20 mph71%30.15 "Hg10 mi
4:15 AM46 °FOvercast.18 mph66%30.14 "Hg10 mi
3:55 AM46 °FOvercast.18 mph71%30.14 "Hg10 mi
3:35 AM48 °FOvercast.9 mph71%30.13 "Hg10 mi
3:15 AM50 °FOvercast.9 mph71%30.13 "Hg10 mi
2:55 AM50 °FOvercast.15 mph71%30.13 "Hg10 mi
2:35 AM52 °FMostly cloudy.18 mph67%30.12 "Hg10 mi
2:15 AM52 °FMostly cloudy.16 mph67%30.11 "Hg10 mi
1:55 AM54 °FMostly cloudy.15 mph63%30.10 "Hg10 mi
1:35 AM54 °FMostly cloudy.10 mph63%30.09 "Hg10 mi
1:15 AM54 °FMostly cloudy.7 mph58%30.09 "Hg10 mi
12:55 AM52 °FOvercast.5 mph58%30.08 "Hg10 mi
12:15 AM52 °FOvercast.7 mph54%30.08 "Hg10 mi
11:55 PM
Jan 29
52 °FOvercast.8 mph54%30.08 "Hg10 mi
11:15 PM52 °FMostly cloudy.3 mph62%30.11 "Hg10 mi
10:15 PM54 °FLight rain. Overcast.6 mph51%30.12 "Hg10 mi
9:55 PM54 °FOvercast.7 mph51%30.12 "Hg10 mi
9:35 PM54 °FMostly cloudy.6 mph47%30.13 "Hg10 mi
9:15 PM54 °FMostly cloudy.7 mph47%30.14 "Hg10 mi
8:55 PM52 °FMostly cloudy.6 mph50%30.14 "Hg10 mi
8:35 PM52 °FOvercast.6 mph50%30.15 "Hg10 mi
8:15 PM54 °FOvercast.6 mph47%30.15 "Hg10 mi
7:55 PM54 °FPassing clouds.5 mph47%30.16 "Hg10 mi
7:35 PM52 °FPassing clouds.5 mph50%30.15 "Hg10 mi
7:15 PM54 °FPassing clouds.5 mph47%30.15 "Hg10 mi
6:55 PM54 °FPassing clouds.3 mph44%30.15 "Hg10 mi
6:35 PM54 °FPassing clouds.5 mph44%30.14 "Hg10 mi
6:15 PM54 °FPassing clouds.3 mph44%30.14 "Hg10 mi
5:55 PM55 °FPartly sunny.5 mph41%30.14 "Hg10 mi
5:35 PM55 °FScattered clouds.3 mph41%30.15 "Hg10 mi
5:15 PM55 °FSunny.3 mph41%30.15 "Hg10 mi
4:55 PM59 °FScattered clouds.5 mph36%30.15 "Hg10 mi
4:15 PM59 °FScattered clouds.5 mph36%30.15 "Hg10 mi
3:55 PM59 °FScattered clouds.8 mph36%30.16 "Hg10 mi
3:15 PM55 °FScattered clouds.9 mph41%30.17 "Hg10 mi
2:55 PM55 °FPartly sunny.7 mph41%30.18 "Hg10 mi
2:35 PM57 °FScattered clouds.9 mph39%30.18 "Hg10 mi
2:15 PM57 °FSunny.8 mph36%30.20 "Hg10 mi
1:55 PM59 °FSunny.6 mph34%30.21 "Hg10 mi
1:35 PM57 °FSunny.6 mph39%30.21 "Hg10 mi
1:15 PM55 °FSunny.9 mph41%30.23 "Hg10 mi
12:55 PM54 °FSunny.9 mph44%30.26 "Hg10 mi
12:15 PM52 °FSunny.7 mph47%30.29 "Hg10 mi
Weather by CustomWeather, © 2014

See weather overviewHow to use our weather pages